RH
30 31 41 41 42 45 50 55 49 49 49 42 44 47 48 47 48 45 44 59 54 36 47 55 54 60 58 56 62 60 50 45 43 42 46 48 50 54 55 58 62 68 73 71 67 65 61 58 54 52 50 48 48 47 47 47 47 47 48 48 48 48 49 49 50 51 51 51 51 50 50 49 48 45 42 37 32 27 21 16 13 12 13 13 15 17
37 40 53 54 54 55 58 64 56 52 51 47 47 47 52 52 47 43 43 62 62 42 55 65 57 59 58 59 63 62 62 61 52 45 48 52 54 58 58 63 72 77 76 70 66 65 61 59 56 54 53 51 50 50 49 50 50 50 50 50 50 51 52 53 53 53 53 52 52 51 50 49 46 41 35 28 21 16 12 10 8 8 8 8 8 9
51 49 57 60 64 64 66 70 59 52 50 49 52 48 53 56 52 53 53 62 60 44 54 64 57 58 59 59 62 65 69 70 60 52 54 57 58 61 61 70 79 77 73 68 64 62 59 58 56 54 53 52 52 52 51 52 51 51 51 52 54 54 55 55 55 54 54 54 52 51 48 44 39 32 24 16 11 9 7 7 6 6 5 5 5 5
46 44 54 62 64 52 49 60 53 50 54 50 48 46 55 58 52 54 55 58 59 50 55 63 58 56 60 61 61 63 68 71 65 59 60 60 60 63 66 76 81 73 68 65 61 60 57 57 55 54 55 54 54 53 53 53 53 54 55 56 57 58 57 56 56 56 55 54 52 48 42 35 27 19 13 9 6 6 5 5 4 3 4 3 3 3
45 46 54 60 62 47 39 53 51 44 55 63 57 48 53 52 45 51 53 53 58 54 54 60 54 52 61 68 65 62 65 69 69 66 66 65 64 65 72 81 80 71 64 61 60 59 58 57 57 56 56 56 55 55 56 57 58 59 60 60 60 59 59 58 57 56 55 52 48 41 33 23 16 10 7 6 5 5 4 3 3 2 3 3 3 3
51 54 55 53 57 53 44 50 52 44 50 64 64 54 53 49 46 52 50 48 56 52 48 50 47 53 67 72 69 67 68 71 74 76 76 73 71 73 78 82 78 71 65 63 61 60 59 58 58 58 58 58 58 59 61 62 63 64 63 63 63 62 60 59 57 54 50 43 35 26 17 11 8 5 4 4 4 3 3 3 3 3 3 3 3 3
49 50 54 54 54 56 53 49 52 55 51 51 57 61 62 54 51 54 47 48 59 53 47 46 42 52 68 70 71 72 73 75 77 81 83 80 78 78 79 76 70 66 63 62 61 60 60 59 59 60 60 62 63 65 67 67 67 67 66 66 65 64 62 58 55 48 38 28 19 11 6 4 4 3 3 3 3 3 3 3 3 3 3 3 4 4
46 45 52 58 57 57 56 48 51 58 51 48 58 64 60 50 50 55 47 50 59 52 51 52 43 49 64 69 73 74 74 77 80 83 85 84 82 78 76 73 65 62 62 61 62 62 62 62 63 64 66 68 70 71 71 70 71 71 71 70 68 65 61 54 46 34 22 13 7 5 3 4 4 4 4 4 4 4 4 4 4 4 4 4 4 4
49 48 49 52 55 57 53 49 55 54 44 52 64 64 60 55 56 58 54 60 63 55 57 58 49 52 66 72 72 71 73 80 85 86 85 85 84 77 73 70 65 65 64 63 64 65 66 66 68 70 73 74 74 75 75 75 76 75 74 71 67 61 53 42 30 18 10 5 4 4 4 4 4 4 5 4 5 4 4 5 4 5 4 4 4 4
47 51 53 48 51 56 52 55 66 58 46 55 64 61 63 68 68 63 63 69 67 63 64 61 53 52 66 77 75 72 76 81 85 86 84 86 85 76 70 68 68 68 67 68 68 69 71 72 75 78 79 79 79 79 80 80 79 75 73 68 60 50 38 25 15 7 5 4 4 4 4 5 5 5 5 5 5 5 5 5 4 5 4 4 4 4
46 55 59 53 55 54 50 54 68 69 57 55 60 55 54 64 67 68 76 73 66 73 70 59 55 51 61 78 76 72 76 79 84 86 84 86 87 82 75 71 71 71 71 73 74 75 78 79 81 83 82 83 83 83 82 80 77 74 69 61 51 39 23 12 6 4 4 4 5 5 5 5 5 6 6 6 6 5 5 5 5 5 5 5 5 5
50 59 59 55 55 53 49 46 55 71 64 53 57 51 46 57 58 62 79 71 63 74 67 59 62 55 59 75 74 72 75 77 81 85 84 87 91 90 83 76 76 76 77 80 81 83 84 81 82 84 85 86 84 83 81 78 76 71 64 57 45 27 12 6 5 5 5 5 5 6 6 6 6 7 7 7 7 6 6 6 6 6 6 5 6 6
42 48 52 55 52 49 48 43 48 63 58 48 55 54 55 66 64 63 71 67 67 68 57 56 59 53 61 76 81 79 78 78 79 81 84 87 92 96 89 81 81 83 85 86 87 87 84 81 81 84 86 86 84 83 81 78 74 68 61 51 33 14 6 5 6 5 6 6 6 7 7 7 8 8 8 8 8 8 8 8 8 8 8 7 7 7
44 45 45 47 45 44 46 46 50 56 52 50 55 57 63 68 71 77 72 67 70 63 54 54 51 57 69 77 86 87 81 81 80 80 84 85 91 97 93 87 86 88 88 88 89 89 87 84 85 89 89 88 87 84 80 76 70 63 55 38 18 6 6 6 6 7 7 7 7 8 9 9 9 9 9 10 10 10 10 10 11 11 10 10 9 9
48 44 40 40 39 41 47 50 50 48 51 57 53 51 60 59 62 76 71 65 71 67 62 55 51 71 82 76 85 88 82 83 80 79 82 83 89 94 95 93 91 91 90 85 87 89 88 89 91 93 92 89 86 82 77 71 65 58 43 22 8 6 7 7 7 8 8 8 9 9 10 10 10 11 11 11 12 12 12 12 13 13 13 13 12 12
47 43 38 40 42 43 47 50 49 48 49 53 52 52 60 59 57 68 67 63 73 80 79 70 67 83 83 75 83 84 83 86 82 81 83 85 90 91 95 98 95 95 92 85 86 90 91 94 95 94 91 88 84 78 72 66 61 48 26 10 6 8 8 8 9 9 9 9 10 10 11 11 12 12 12 13 13 14 15 16 15 15 15 15 15 14
53 52 44 42 44 44 48 49 48 49 46 49 56 52 52 52 50 63 73 68 71 81 81 77 81 84 79 78 81 79 83 86 83 84 83 85 92 94 98 101 97 97 94 89 91 94 96 97 95 92 89 84 79 72 68 64 53 32 13 8 9 9 9 10 10 10 10 11 11 11 12 13 13 14 15 15 16 17 17 17 17 17 17 17 17 16
53 59 54 46 45 44 44 45 44 44 43 53 61 51 47 55 54 63 77 78 83 86 76 74 88 92 87 88 88 85 87 88 85 84 82 84 89 91 96 100 99 98 97 95 96 98 99 96 93 90 84 79 74 69 66 59 40 17 9 10 10 9 11 11 11 11 12 12 13 14 15 16 17 18 20 20 20 20 19 19 18 18 17 17 17 17
55 62 60 49 47 44 42 46 49 45 40 46 52 43 48 65 70 73 79 81 87 89 79 77 87 92 91 93 94 91 90 90 88 85 84 87 88 86 87 94 100 100 99 100 99 99 98 93 89 85 79 74 70 67 63 49 26 11 10 11 10 11 12 12 13 14 15 16 17 19 20 20 21 22 23 24 23 22 21 21 20 20 19 19 19 19
59 60 60 52 46 46 48 53 57 53 46 46 49 49 59 68 66 68 74 77 81 86 87 84 79 81 91 94 92 89 89 90 88 86 88 91 90 83 79 89 100 99 99 100 99 98 94 89 86 80 76 73 70 66 58 38 18 10 11 12 12 13 14 15 16 17 18 20 20 22 22 23 24 24 25 25 24 24 23 23 23 22 22 22 21 22
64 59 60 58 50 50 54 53 53 54 53 54 60 66 73 71 64 65 69 70 75 82 88 91 87 87 92 91 88 90 90 88 86 87 91 92 91 85 78 85 97 97 96 97 96 94 90 85 82 78 75 73 70 67 53 29 15 12 14 15 15 16 17 17 18 19 20 21 21 22 23 24 25 25 26 26 26 26 26 26 26 26 26 25 25 26
68 69 69 66 58 53 52 48 49 51 49 52 64 70 71 71 72 79 82 75 77 82 82 90 97 94 89 86 87 89 88 89 88 88 90 88 88 86 79 81 91 93 93 92 90 89 86 83 80 77 76 73 70 67 50 25 14 14 15 16 16 17 18 18 19 20 21 21 22 23 24 25 26 26 27 27 27 27 27 27 28 28 28 27 28 28
64 76 76 68 60 52 49 53 57 56 53 57 66 69 73 78 79 87 93 85 83 84 80 86 96 95 90 87 87 88 88 90 91 88 87 84 81 80 76 77 84 88 89 88 87 86 83 81 79 76 74 71 70 67 46 22 14 15 15 16 17 17 18 20 21 22 22 23 24 25 25 26 27 28 28 28 29 29 30 30 30 30 30 30 30 31
58 72 73 66 64 57 50 52 53 52 57 69 75 73 80 87 82 82 88 86 88 89 87 93 97 92 90 90 89 92 92 88 88 88 86 81 77 74 72 75 80 83 85 86 86 85 83 81 78 75 71 70 73 67 42 18 14 16 16 17 19 20 21 23 23 24 25 25 26 27 28 28 29 30 31 31 32 32 32 33 32 32 33 32 33 34
56 64 73 78 81 75 65 62 60 58 62 75 83 79 79 84 83 83 82 81 85 83 85 98 95 80 84 93 91 89 90 87 85 86 84 78 76 74 71 73 78 80 83 84 85 84 82 80 75 71 71 74 77 65 36 18 18 20 19 20 21 23 24 25 25 26 26 27 28 29 29 30 31 32 33 33 34 35 35 35 35 35 35 36 37 37
61 63 73 82 87 89 88 81 74 72 74 80 85 84 84 85 87 88 87 86 86 79 83 99 92 72 74 88 89 82 81 82 80 80 80 78 77 74 71 73 77 80 83 84 85 85 82 78 74 74 79 80 75 55 30 20 22 22 21 22 24 26 28 28 28 28 28 29 30 31 32 34 34 35 36 37 38 38 38 38 38 38 39 40 41 41
76 79 77 77 74 76 80 72 65 73 83 90 93 92 88 86 84 83 86 92 92 90 93 95 90 81 73 74 80 77 72 75 76 77 78 77 77 74 70 73 79 83 85 86 87 85 80 76 77 82 85 81 68 46 26 22 23 23 23 23 25 28 29 29 29 29 30 32 33 34 36 38 38 39 41 41 42 42 42 42 42 42 43 44 44 46
84 79 73 79 75 70 72 67 64 75 87 94 99 96 89 88 86 83 88 91 88 91 88 72 73 85 73 63 71 74 72 75 75 75 76 77 77 74 70 73 78 83 86 88 88 83 77 78 83 87 85 79 63 39 24 23 23 23 24 25 27 29 29 30 31 31 32 34 35 38 40 42 43 44 45 46 46 45 45 45 45 46 47 48 49 50
79 73 73 88 83 73 75 73 70 78 86 92 97 94 90 92 88 84 89 90 84 87 79 60 66 80 72 65 73 75 76 79 76 74 75 74 73 74 73 73 76 81 85 88 86 81 77 82 88 88 85 74 54 32 23 25 24 24 26 27 29 31 32 33 34 34 36 37 39 42 44 46 47 47 49 50 49 49 48 48 49 50 51 51 52 54
67 73 83 92 84 73 74 75 74 79 88 95 95 90 89 92 90 88 89 87 85 85 78 72 79 82 73 73 78 76 76 78 74 72 72 70 71 75 76 75 76 82 87 88 85 80 81 87 90 89 84 67 42 28 26 27 26 27 28 30 32 33 34 36 36 37 39 40 43 45 47 49 50 50 51 52 52 52 52 51 52 53 53 54 54 55
54 65 83 91 83 74 75 78 77 81 92 99 95 89 87 87 88 90 87 84 87 86 80 84 91 86 78 78 77 73 73 73 71 70 70 69 72 75 76 75 79 85 89 87 84 82 85 90 92 90 79 55 33 27 28 29 28 29 30 31 33 34 36 38 38 39 40 41 44 47 49 51 52 52 52 54 54 54 54 55 56 56 55 55 54 55
70 75 89 94 80 70 75 77 76 83 90 93 93 93 92 90 85 85 84 82 84 86 89 92 88 81 79 77 73 70 71 71 71 71 71 71 72 75 75 75 80 87 89 86 84 86 90 92 93 88 68 42 29 29 30 30 30 30 31 33 35 37 39 39 39 39 40 42 44 47 49 52 53 53 52 53 55 55 56 58 57 57 57 56 55 56
94 87 89 93 78 69 75 73 76 86 78 71 84 93 91 87 82 82 85 80 77 86 95 92 79 73 75 74 72 73 73 73 75 73 72 72 72 74 74 74 81 88 87 86 86 89 92 94 94 82 55 34 29 31 31 32 32 32 33 34 37 39 40 39 39 39 40 41 43 45 49 52 53 53 52 53 55 56 58 60 60 60 60 58 58 58
101 88 86 96 88 82 85 77 74 75 55 48 72 87 83 79 80 87 88 77 73 80 86 82 74 71 72 71 73 77 75 75 76 74 72 72 74 75 74 75 83 88 86 87 90 92 94 96 90 69 42 29 30 31 31 32 32 32 32 35 38 39 40 39 38 39 40 41 42 44 48 51 52 52 52 54 56 56 59 63 63 62 63 62 61 61
93 86 87 98 97 95 94 79 62 51 45 58 80 84 78 77 81 88 84 74 74 78 81 85 80 73 73 73 73 75 75 75 77 75 73 72 73 74 75 79 86 88 88 91 94 96 97 93 79 53 33 29 31 31 32 32 32 32 33 36 39 39 39 39 39 40 41 41 42 44 47 50 52 51 52 54 56 57 60 65 66 65 65 64 63 64
81 84 87 93 95 91 86 80 64 47 54 82 91 80 75 78 84 89 82 73 76 80 83 88 82 73 74 74 72 76 78 78 78 74 71 71 72 74 79 85 89 89 91 94 96 97 94 84 64 42 31 32 32 32 35 34 33 34 35 38 41 40 40 40 40 41 42 42 43 45 47 50 50 50 51 52 54 56 59 64 67 67 66 65 64 64
76 83 78 76 81 83 81 84 76 56 56 80 90 80 74 74 80 89 89 81 78 81 86 86 78 74 76 76 78 81 81 81 78 71 70 74 78 83 87 90 91 92 93 96 96 93 86 72 52 35 31 32 32 34 36 35 34 36 37 39 41 40 40 41 41 41 43 43 45 46 48 50 50 49 51 51 52 54 58 64 68 68 69 68 66 65
71 78 70 64 73 82 80 84 91 79 66 73 83 77 67 67 73 82 91 90 82 79 82 82 80 79 79 81 84 83 83 88 85 74 73 83 88 91 94 93 94 95 95 96 95 87 75 59 41 31 30 31 32 34 36 35 36 38 39 40 41 40 40 41 41 43 44 45 47 49 50 51 52 52 52 53 54 55 58 65 70 70 71 73 71 68
76 83 83 79 84 87 82 89 105 95 71 68 77 72 66 71 76 77 84 88 85 80 79 82 83 81 79 83 85 83 89 99 92 75 76 88 93 93 95 94 94 95 96 96 91 79 66 49 34 29 30 31 32 35 36 38 39 39 41 42 41 41 42 42 43 45 46 47 49 52 53 55 56 57 56 56 57 59 62 68 71 71 73 75 74 71
88 91 90 82 82 88 92 98 100 82 61 61 72 72 69 72 77 82 82 79 80 82 81 81 83 81 80 84 84 83 91 97 90 79 79 88 92 91 93 93 93 95 97 93 86 75 60 43 32 29 30 31 33 37 39 41 41 41 42 43 42 43 43 43 45 46 47 50 52 54 58 59 59 60 59 59 60 60 64 70 72 72 75 77 75 72
94 97 92 81 83 94 101 98 86 70 64 67 67 66 64 66 78 87 79 66 70 79 79 78 81 82 83 85 86 88 90 87 85 84 84 87 91 91 92 93 93 95 96 90 83 72 56 40 31 30 30 31 35 38 41 43 43 42 43 43 43 44 44 43 46 47 48 51 53 57 60 61 61 62 61 62 62 60 62 69 72 74 78 78 76 73
94 98 97 94 93 94 101 101 82 62 59 62 60 59 61 71 82 79 65 60 69 76 76 76 81 84 85 87 89 90 89 85 85 87 87 89 93 94 94 94 93 95 94 86 76 65 51 38 32 30 30 31 35 38 42 45 44 42 43 44 43 44 44 44 46 48 49 51 55 58 61 61 61 63 62 63 64 61 60 64 68 73 79 79 77 75
90 88 93 98 90 83 98 107 84 58 54 59 61 65 68 73 73 64 62 68 72 72 75 79 83 86 87 88 89 88 88 88 90 90 88 89 94 96 95 93 94 96 93 80 68 58 47 38 33 31 30 31 35 39 43 46 45 43 42 43 44 45 44 45 47 48 49 53 56 59 62 60 60 61 62 64 65 63 62 63 63 68 76 80 78 76
81 78 84 89 81 80 97 100 74 55 58 61 60 64 64 60 58 59 67 74 71 70 78 85 88 89 88 88 90 91 92 93 93 92 90 91 95 97 95 94 96 96 86 71 60 54 45 38 35 32 30 32 36 39 43 46 46 44 42 43 45 46 45 46 48 49 50 53 57 60 61 59 58 59 60 63 65 63 64 65 63 63 71 79 80 77
68 65 68 72 73 72 74 69 53 44 49 52 51 54 55 54 57 61 66 71 73 77 84 90 90 87 85 89 94 97 97 96 96 96 96 96 97 97 96 97 97 92 78 61 52 49 43 38 36 33 31 32 35 39 43 46 46 44 44 45 46 47 46 47 49 49 51 54 59 62 61 59 58 59 59 62 64 64 65 67 66 64 67 76 80 78
58 55 61 70 76 70 54 48 49 45 45 49 50 52 55 56 58 62 66 73 80 85 90 91 86 81 84 91 98 99 98 97 97 99 99 100 99 98 97 97 91 80 65 50 44 44 42 38 36 34 31 31 34 39 44 46 46 46 45 46 48 48 48 49 49 50 52 55 60 63 63 59 58 58 59 60 62 63 65 68 70 69 68 74 78 78
62 57 67 73 78 76 62 53 53 48 46 50 51 53 56 56 60 68 74 80 85 90 91 85 78 80 89 96 99 100 99 98 99 100 100 100 101 99 96 90 78 65 53 43 40 43 43 39 36 35 33 32 34 40 45 45 45 47 47 48 50 49 49 50 50 51 53 56 60 64 63 61 59 59 60 61 61 61 63 65 69 71 70 73 77 78
63 61 75 79 78 76 64 52 49 49 50 52 53 55 57 61 69 76 80 85 90 91 86 78 77 85 93 97 100 101 100 99 100 100 100 101 101 96 86 74 63 52 43 39 40 43 43 41 39 37 35 34 36 41 46 46 45 47 48 50 51 51 50 51 51 51 53 57 61 64 63 61 61 61 62 63 63 64 63 63 66 68 69 74 80 82
61 68 77 78 79 77 65 55 55 59 58 54 55 59 63 68 77 81 83 88 89 84 80 78 81 88 93 96 100 101 100 100 99 100 102 101 96 87 74 61 53 45 39 37 40 43 44 42 41 40 37 36 38 43 46 45 45 46 49 51 52 52 52 52 52 52 54 58 62 64 63 62 62 63 65 66 67 68 67 66 68 68 67 72 79 83
68 77 79 79 82 76 62 53 56 63 65 60 59 65 69 73 80 84 84 85 82 78 79 81 84 90 95 98 100 100 101 101 99 100 102 99 91 80 66 54 46 40 37 38 40 42 43 42 42 41 38 37 40 44 46 46 45 46 50 52 53 52 52 53 53 53 55 59 63 65 65 64 63 65 68 70 72 72 69 67 68 71 71 72 72 74
61 61 65 73 75 61 44 41 50 62 67 64 63 68 72 77 84 86 82 79 77 77 79 83 88 94 99 100 100 100 101 101 99 100 101 97 88 76 61 50 43 38 38 40 40 41 43 43 42 41 39 38 40 44 46 46 45 47 51 54 54 53 53 53 54 55 57 61 64 66 67 66 65 66 70 74 77 78 75 70 67 67 70 73 73 69
Wind_Speed
4 3 2 4 5 5 5 4 4 1 2 1 2 3 5 5 5 5 4 4 1 1 3 1 3 4 6 6 11 17 15 14 13 18 21 23 27 29 33 35 36 35 32 31 31 29 27 26 24 22 20 18 16 14 10 8 7 6 5 5 7 10 12 14 17 19 21 24 25 27 29 30 32 33 33 32 31 29 27 25 24 23 22 22 23 25
4 3 3 5 5 4 3 2 3 3 2 1 2 3 4 3 6 5 2 4 1 1 2 2 5 4 5 4 10 14 12 11 9 13 17 22 25 28 33 34 33 32 31 31 30 27 25 23 21 19 17 14 12 10 7 6 7 7 7 9 11 14 17 19 22 23 25 27 29 31 32 34 34 34 34 33 31 28 25 23 21 20 20 20 21 22
4 2 6 5 2 2 3 3 4 3 3 2 1 1 3 3 4 4 2 4 1 1 2 1 4 3 4 3 8 13 10 9 11 13 16 21 25 27 31 32 31 32 31 30 28 25 23 20 18 15 14 11 9 9 7 7 7 8 10 13 15 18 21 23 25 26 28 30 31 33 34 35 35 33 32 29 27 25 23 21 21 20 20 20 20 20
3 3 4 2 2 3 3 3 4 3 2 1 1 1 4 3 2 3 3 3 1 1 2 2 3 1 2 3 6 11 12 14 16 17 17 19 23 25 27 28 29 31 31 28 25 23 20 17 15 13 12 10 8 7 7 8 9 12 15 17 20 22 24 26 27 29 31 32 33 34 34 34 32 29 27 25 23 23 22 22 21 21 22 21 21 20
4 4 1 1 2 2 1 3 3 1 3 3 4 3 4 4 3 4 3 3 3 2 2 3 1 1 2 3 4 7 12 15 17 19 19 18 21 24 25 25 26 29 28 26 24 20 17 15 14 12 10 8 7 8 10 12 14 16 18 21 23 25 27 29 31 32 34 35 36 36 35 33 29 26 25 24 24 23 23 23 23 23 23 23 22 21
4 3 1 2 4 4 2 3 2 2 3 5 3 4 5 4 4 4 4 4 3 3 0 3 1 3 2 3 3 3 6 10 13 17 17 17 20 23 24 24 25 26 24 23 20 17 15 13 12 10 9 8 9 11 13 15 17 19 21 23 25 28 30 32 33 35 36 37 36 35 34 32 30 28 27 27 27 26 25 25 25 24 23 23 23 22
1 2 1 3 4 5 5 3 3 2 3 4 3 2 2 1 1 3 3 2 1 3 1 2 1 3 1 2 2 2 4 6 9 12 13 16 19 20 22 23 24 24 22 20 18 15 13 11 9 8 9 10 11 14 15 16 19 21 23 26 28 30 33 34 36 37 37 35 33 31 30 29 29 29 27 27 26 27 26 25 24 24 23 22 23 22
1 4 4 5 5 5 5 3 2 3 3 4 3 1 0 1 3 4 2 2 3 2 2 1 2 2 2 1 1 2 5 6 7 8 9 13 17 19 21 21 22 21 19 17 15 12 11 9 8 8 10 11 13 15 16 18 20 23 25 28 31 33 35 37 37 36 34 31 30 28 27 26 26 26 26 26 25 26 26 25 24 24 23 23 23 24
1 4 4 5 5 4 3 2 3 1 1 4 2 1 2 2 3 2 2 2 1 3 3 3 3 2 3 1 1 1 4 5 5 5 5 10 15 18 20 20 19 18 15 13 12 10 9 8 8 9 10 12 13 15 17 20 22 24 27 30 33 36 37 37 35 31 29 28 27 27 26 26 25 25 25 25 25 25 25 25 24 24 24 23 23 24
1 3 1 3 4 2 2 4 3 2 2 4 1 1 0 2 2 2 3 2 2 2 3 3 1 2 3 1 2 0 2 3 4 4 4 9 14 16 19 18 16 15 13 11 9 8 7 7 9 10 10 12 14 16 18 21 23 26 28 31 35 38 37 34 30 27 26 25 25 25 26 25 25 25 25 25 25 25 25 26 26 26 26 25 25 25
3 2 2 4 2 1 3 4 1 2 3 3 2 3 2 3 4 2 2 3 3 2 4 4 2 1 2 2 3 1 1 4 5 5 5 8 12 14 15 15 13 12 10 9 8 7 7 8 9 10 11 13 15 18 20 22 25 27 30 34 37 37 33 30 27 26 25 24 25 25 25 26 26 26 26 26 26 27 28 28 28 28 27 27 27 27
7 4 2 3 3 2 2 3 2 0 2 3 3 3 3 4 3 3 4 3 3 3 5 4 2 1 2 2 1 2 1 5 5 6 6 8 10 12 13 12 11 9 8 7 6 6 7 9 12 13 14 16 17 19 21 24 27 29 33 36 37 33 29 27 26 25 24 24 25 25 25 26 26 26 26 26 28 28 29 30 30 30 30 29 28 28
6 2 3 2 3 7 4 4 5 3 4 5 3 4 5 4 4 3 4 2 1 3 3 2 2 1 2 1 2 3 2 6 7 7 9 9 11 11 12 11 9 8 6 5 5 6 8 11 14 15 15 16 18 20 23 26 29 32 36 37 34 30 27 26 25 24 24 24 25 26 26 26 26 26 26 26 28 28 29 30 31 31 32 32 31 30
5 4 5 3 3 8 6 3 5 4 5 6 3 4 4 3 4 5 4 2 3 4 3 1 3 2 1 1 4 3 4 9 12 12 12 13 12 10 9 8 6 5 3 5 6 7 10 12 13 13 14 16 19 22 25 28 31 35 37 35 31 28 26 25 25 25 25 25 25 25 26 26 25 25 26 27 28 29 29 29 30 31 32 32 33 32
4 4 6 5 4 8 6 3 1 3 3 3 1 3 2 2 2 4 3 3 6 5 5 3 2 2 1 2 3 2 8 13 15 15 15 14 12 9 7 4 2 2 3 7 9 10 12 12 12 13 14 18 21 24 27 30 33 36 35 32 28 27 26 25 25 25 25 25 25 25 25 25 25 25 26 27 27 28 29 30 31 31 31 32 33 33
3 4 5 2 2 4 6 2 1 2 3 1 1 3 2 0 2 2 2 3 4 4 4 2 1 2 0 2 2 5 9 12 13 14 15 14 11 9 6 2 0 1 4 8 10 11 11 11 11 13 16 19 23 26 29 32 35 35 32 29 27 25 25 25 25 25 25 25 25 25 25 25 24 25 26 27 27 28 29 30 31 32 32 32 33 33
3 4 6 5 3 3 6 3 3 4 2 2 3 2 3 2 4 1 3 1 2 2 3 1 1 1 0 0 2 5 6 7 10 12 14 13 12 10 7 3 2 3 6 9 10 10 10 10 12 15 18 21 25 28 31 33 34 32 29 27 26 25 25 25 26 25 25 26 25 25 25 25 25 25 26 28 28 29 29 30 31 31 32 32 33 34
1 4 6 5 2 4 5 3 4 6 3 2 3 4 4 1 3 2 1 3 3 2 4 1 0 2 1 1 1 4 4 5 7 9 12 13 14 12 10 6 5 6 7 8 9 9 9 11 13 16 19 23 26 30 33 34 32 29 27 26 26 26 25 25 26 26 26 26 26 26 26 26 26 26 28 29 30 30 31 31 31 32 32 33 33 34
2 2 6 1 1 6 5 3 3 6 6 4 2 5 3 2 2 2 1 4 4 4 5 2 1 2 1 2 2 3 3 4 5 7 9 10 12 13 12 10 8 7 7 8 9 10 10 12 15 17 21 24 28 32 35 34 31 28 26 26 26 26 26 26 26 26 26 26 26 27 27 27 27 27 29 30 31 31 32 32 32 33 33 34 34 35
2 2 4 4 3 5 4 4 3 6 6 4 2 4 3 2 2 2 1 1 2 4 5 3 3 3 3 5 4 1 4 6 6 6 5 5 8 12 14 12 9 7 7 10 10 11 11 13 16 19 23 27 31 34 35 34 31 28 27 26 26 26 26 26 26 27 27 27 27 27 27 27 28 28 29 30 31 31 32 32 33 33 34 35 35 35
2 2 2 6 6 4 3 3 2 3 5 6 4 5 5 2 1 2 1 1 0 3 3 4 3 2 3 6 5 5 6 5 4 3 2 2 4 9 14 12 10 10 10 12 11 11 12 15 17 21 25 31 35 36 36 35 32 29 27 26 26 26 26 27 27 27 27 27 27 28 28 28 28 29 30 30 31 31 32 33 33 34 35 35 36 36
2 1 1 4 6 4 1 1 1 2 2 4 4 4 4 3 2 3 3 1 1 2 2 4 3 1 2 3 3 4 3 2 1 1 0 4 6 9 13 13 11 12 12 12 12 12 14 16 19 24 29 34 38 39 37 34 31 29 28 27 27 27 27 27 27 27 28 28 28 28 28 28 28 29 30 31 31 31 32 33 34 34 35 36 36 36
1 2 1 3 4 3 4 2 2 2 3 6 5 4 3 2 3 1 3 3 2 2 1 2 2 1 2 1 2 3 4 4 3 3 2 4 7 9 14 14 11 12 12 12 13 14 15 18 22 28 33 37 39 39 37 33 31 29 28 27 27 27 27 27 27 27 28 28 28 28 29 29 29 30 30 31 32 32 33 33 34 34 35 36 36 36
2 2 2 3 5 4 4 2 1 2 7 6 3 4 3 1 0 3 2 1 1 2 4 3 2 1 2 3 4 6 7 6 5 4 3 4 6 11 16 15 13 13 14 14 14 15 17 21 26 31 36 39 39 38 36 33 30 28 27 27 27 27 27 27 27 28 28 28 28 28 29 29 30 30 31 32 32 33 33 34 34 35 35 36 36 36
3 1 3 3 5 6 6 5 4 4 6 4 2 4 4 3 3 1 1 0 0 4 7 4 3 3 2 4 6 7 8 7 7 6 5 6 8 14 19 18 14 15 16 16 16 17 20 24 30 35 38 38 37 36 34 31 29 28 27 27 27 27 27 27 27 28 28 28 29 29 29 30 30 31 31 32 33 34 34 34 35 35 35 36 36 36
2 1 2 4 3 4 4 5 5 4 4 3 2 5 5 5 5 0 2 2 2 6 8 2 2 7 5 4 6 7 7 7 6 5 7 10 11 15 20 18 16 17 18 18 17 19 23 27 32 35 35 34 34 34 32 30 28 28 28 27 27 27 28 28 28 28 28 29 29 29 30 30 30 31 32 33 34 34 35 35 35 36 36 36 37 37
3 2 2 4 3 2 4 5 4 3 2 2 4 6 5 5 4 2 3 2 1 5 5 3 4 9 10 5 5 5 4 5 6 6 9 12 12 14 18 18 17 18 18 18 18 20 25 30 32 33 32 32 33 33 31 30 29 28 28 28 27 27 28 28 28 28 28 29 29 29 30 30 31 32 33 34 34 35 35 35 36 36 36 37 37 37
4 4 3 2 3 5 5 7 6 2 1 2 2 4 4 4 4 5 3 2 2 3 4 5 6 8 12 10 3 2 3 4 7 10 13 14 13 15 20 20 19 19 19 19 20 23 28 30 31 31 31 32 33 32 30 29 28 28 28 28 27 27 28 28 28 28 28 29 29 29 30 30 31 31 33 34 34 35 35 35 36 36 36 37 37 37
6 2 1 1 4 7 6 5 4 1 3 3 1 2 3 3 3 4 1 5 4 2 6 10 10 10 13 9 2 1 4 6 10 14 16 17 18 20 23 23 21 20 21 21 21 24 29 30 30 30 30 32 33 31 29 29 28 28 28 28 28 27 28 28 28 28 28 28 29 29 29 30 31 31 32 33 34 34 35 35 36 36 37 37 37 37
3 0 2 1 4 7 6 4 3 4 4 2 1 3 2 1 2 3 4 5 5 6 10 10 12 13 10 4 1 4 7 9 13 16 17 20 22 23 24 24 22 21 21 21 22 26 30 30 30 30 31 33 32 30 29 29 29 28 28 28 28 27 27 28 28 28 28 28 28 28 29 30 30 31 32 33 34 34 35 35 36 36 37 37 37 37
5 2 1 2 3 6 5 5 3 4 6 4 3 4 2 1 3 3 3 3 3 7 9 8 10 11 5 3 4 8 9 11 15 19 21 22 23 24 25 24 22 21 20 20 24 28 31 30 30 31 32 32 30 29 29 29 29 29 28 28 28 28 27 28 28 28 28 28 28 28 29 30 31 31 32 33 33 34 34 35 36 36 37 37 37 37
5 2 2 4 3 5 4 6 6 1 3 1 4 3 1 1 2 3 3 3 4 8 9 9 10 7 2 2 7 8 10 14 17 20 22 24 25 25 26 26 23 20 19 22 27 31 32 31 31 32 32 31 29 28 28 29 29 29 29 29 28 28 28 28 28 28 28 28 28 29 30 31 32 32 32 33 33 34 35 35 36 36 37 37 38 38
2 2 2 3 2 5 4 7 6 3 4 4 5 3 3 3 3 4 5 6 6 5 5 7 8 5 4 7 8 8 11 16 18 19 23 27 28 27 27 26 22 19 21 27 31 33 32 31 32 33 32 30 28 28 28 29 29 29 29 29 28 28 28 28 28 28 28 28 29 29 30 31 32 32 33 33 34 34 35 35 36 36 37 38 38 38
2 3 1 1 0 4 7 8 5 5 3 5 4 6 5 3 5 6 7 9 9 6 5 7 8 6 7 9 10 11 14 18 22 24 27 29 29 28 26 23 19 20 27 31 32 32 31 32 33 33 31 29 28 28 28 28 28 28 28 28 28 28 28 28 28 28 28 28 28 29 30 30 32 33 33 34 34 35 35 35 36 36 36 37 38 38
2 3 1 1 1 3 5 6 6 3 3 4 3 4 4 5 6 8 11 12 11 9 8 8 8 7 9 13 17 19 20 22 26 30 30 29 27 23 21 18 19 25 31 32 31 31 32 32 33 32 30 28 28 28 28 28 28 28 27 27 27 27 27 27 27 27 28 28 28 29 30 31 32 33 34 34 34 35 35 35 36 36 36 37 37 37
1 2 1 1 1 1 4 4 2 5 5 2 1 3 4 5 4 7 9 8 7 6 6 6 7 10 14 19 21 20 22 26 29 30 28 23 19 17 16 19 25 30 31 31 31 31 32 32 32 31 29 28 28 28 28 28 28 28 28 27 27 28 27 27 28 28 28 29 29 29 30 31 33 34 34 35 35 35 35 35 36 36 36 37 37 37
3 2 1 1 0 0 2 2 3 5 5 2 2 2 1 2 3 3 6 5 4 5 4 4 8 13 17 19 19 19 23 25 22 20 17 14 13 16 20 25 29 30 30 30 31 31 31 31 30 30 28 28 27 27 27 28 28 28 28 28 27 28 27 27 28 28 28 29 29 29 30 31 33 34 34 35 35 36 36 36 36 35 35 37 38 37
5 2 1 1 1 2 1 3 4 5 4 4 4 5 5 5 6 4 4 6 2 6 3 6 9 14 16 16 17 20 22 17 11 9 10 12 16 21 25 28 29 29 30 31 31 31 31 30 29 28 27 27 27 26 27 27 27 28 28 28 28 28 27 27 27 28 28 29 29 29 30 30 32 33 34 34 35 35 35 35 35 34 35 36 37 37
7 3 4 3 2 1 2 1 2 3 5 5 5 5 3 7 6 3 3 6 3 5 5 9 11 15 16 16 18 18 13 7 7 11 14 17 22 26 28 31 31 31 32 31 31 31 30 29 28 27 26 26 26 26 26 27 27 28 28 28 28 28 27 27 27 28 28 29 29 29 29 30 31 32 33 34 34 34 35 35 34 34 34 35 35 35
5 5 4 2 2 1 3 2 3 4 6 5 7 4 5 3 4 2 5 6 5 5 9 12 15 19 18 20 20 15 7 7 12 20 25 26 28 31 33 34 33 33 33 32 31 31 30 29 28 27 26 26 26 26 26 27 28 28 28 28 28 28 28 28 27 28 28 28 29 29 29 30 30 31 32 33 34 34 34 34 34 34 34 34 33 34
2 3 2 1 2 3 4 3 4 5 5 5 5 4 5 1 4 0 5 6 7 13 18 18 20 21 21 23 20 14 14 19 24 30 33 32 33 34 34 34 34 33 33 32 31 31 30 29 28 27 27 26 26 26 26 27 28 28 28 28 28 28 28 27 27 28 28 28 29 29 29 29 29 30 31 32 33 34 33 32 33 33 33 33 33 32
0 1 1 0 2 2 3 2 4 6 4 5 3 4 2 1 1 5 10 15 20 23 24 22 22 24 24 24 22 20 25 29 30 31 32 32 33 34 34 33 33 32 32 32 31 30 30 29 28 28 27 26 25 26 26 27 28 28 28 28 28 27 27 27 27 27 28 28 29 29 29 29 28 29 30 31 32 34 33 32 32 32 32 32 32 32
3 1 3 2 2 0 1 1 3 6 4 6 2 2 3 3 8 15 19 24 24 24 25 25 25 25 25 26 27 27 30 31 31 31 32 32 33 34 33 33 32 32 32 32 31 30 29 29 29 28 27 26 25 25 26 27 28 28 28 28 28 27 27 27 27 27 28 28 29 29 29 29 28 28 29 30 32 33 33 33 32 32 32 32 31 32
3 3 2 3 2 1 1 2 3 3 4 4 3 5 6 11 18 22 23 25 26 27 27 26 26 27 28 28 29 30 30 31 31 32 33 33 34 34 33 33 32 32 32 31 31 29 28 29 29 29 28 27 25 25 26 27 29 29 28 28 28 28 28 27 27 27 28 28 28 28 28 28 28 28 28 30 31 32 33 33 32 32 32 31 31 31
6 7 3 3 4 4 5 10 11 12 14 15 13 13 16 20 24 25 25 27 29 29 26 25 29 31 30 28 28 29 30 31 32 33 34 35 35 33 32 32 32 31 31 31 30 28 28 28 29 29 29 27 25 25 26 26 28 29 28 28 28 28 28 28 27 28 28 28 28 28 28 28 28 27 27 28 30 32 33 33 32 32 32 31 30 30
8 8 4 1 3 7 13 20 23 25 27 23 18 18 21 23 24 26 27 27 28 28 27 28 32 33 30 28 27 29 31 32 33 35 35 35 34 33 32 32 32 31 30 30 29 27 28 29 29 29 29 27 25 25 25 26 27 28 28 28 28 28 28 28 28 28 28 28 28 28 28 29 28 28 27 27 29 30 31 32 32 32 32 31 30 30
4 7 5 2 1 4 7 10 12 16 20 21 22 24 23 23 24 24 25 26 27 29 31 32 33 32 29 27 27 30 32 33 35 37 36 34 33 33 33 32 32 31 29 29 28 27 28 29 29 29 29 28 26 25 26 26 26 26 27 28 28 28 28 28 28 29 29 29 29 29 28 29 29 29 28 28 28 29 30 30 30 31 31 31 31 30
2 5 4 4 4 5 10 15 18 22 26 28 28 25 22 21 23 23 24 27 30 32 34 33 31 29 28 27 28 31 33 34 35 36 36 34 34 34 33 32 31 30 29 27 27 27 28 29 29 29 30 29 28 26 26 27 26 26 27 27 28 29 29 28 29 29 30 29 29 29 29 29 29 29 29 29 29 29 30 31 30 30 30 30 30 31
4 4 4 3 4 7 13 18 21 22 22 20 19 19 20 22 24 26 28 31 33 34 33 32 30 29 28 29 30 31 33 35 35 35 35 35 34 33 32 31 30 29 28 27 27 27 28 29 29 30 30 30 28 27 28 28 27 26 26 27 28 29 29 29 29 29 30 30 29 29 29 29 28 29 29 30 30 29 29 29 30 31 30 28 28 28
5 3 3 1 3 7 9 12 11 9 12 16 19 21 24 26 28 31 33 34 33 33 33 33 33 31 29 30 30 30 32 36 36 34 34 34 33 32 31 30 30 29 28 27 27 27 28 28 29 30 30 29 28 28 28 28 27 27 26 27 28 28 29 29 30 30 30 30 29 30 30 29 29 28 29 30 31 31 30 29 28 28 29 28 27 26
11 9 7 5 7 13 19 23 20 14 17 26 29 28 29 32 33 34 34 34 34 35 35 34 34 32 31 32 32 30 33 36 35 33 32 32 31 31 30 29 29 28 27 27 27 27 28 28 29 30 29 29 28 28 28 28 28 27 26 27 28 28 28 29 30 31 30 30 30 30 30 30 30 29 29 29 30 31 32 32 31 28 26 26 27 26
Wind_Direction
42 25 319 274 264 263 265 214 212 201 156 231 225 245 265 264 279 264 266 305 13 230 270 150 90 26 359 350 351 5 37 64 92 114 115 118 119 117 118 117 116 113 114 120 123 125 125 124 125 124 123 124 122 116 114 112 95 69 44 6 348 347 339 331 329 327 327 327 327 328 329 329 330 328 326 324 321 319 317 314 310 306 301 295 291 286
47 31 265 257 250 257 283 206 151 104 89 26 212 255 283 240 266 271 262 314 340 183 275 92 82 24 7 356 360 17 40 46 68 110 117 120 121 120 121 119 115 114 117 123 124 123 125 123 123 122 120 122 116 106 96 81 55 30 8 349 343 341 336 335 336 334 333 333 332 332 331 329 329 326 324 323 322 321 319 317 313 309 305 302 298 294
19 302 264 268 215 108 46 89 117 107 91 73 144 270 295 259 277 300 322 326 359 173 259 103 95 31 359 2 21 27 37 50 70 105 118 122 123 122 123 121 116 118 120 123 122 122 123 120 120 119 113 108 98 88 72 51 29 4 351 345 343 340 338 337 335 333 332 332 331 330 328 326 325 323 322 321 320 319 317 317 315 313 310 307 305 301
341 280 272 280 161 114 40 54 78 56 48 172 218 275 273 285 306 292 313 324 338 218 203 114 104 80 352 9 37 35 49 66 78 98 110 118 122 122 124 121 119 121 121 121 121 119 120 117 114 108 98 91 79 66 44 22 4 355 351 348 344 340 338 335 333 332 331 329 328 326 325 323 321 319 318 317 316 316 316 317 317 317 317 315 314 310
278 266 267 48 90 93 329 344 43 40 338 281 221 222 252 289 257 237 291 316 324 331 139 105 23 310 24 23 28 37 55 63 72 88 95 105 117 122 121 118 119 122 122 122 119 117 117 113 104 93 82 73 51 34 20 9 360 356 352 346 343 339 337 335 333 331 329 327 325 322 321 319 318 318 319 319 319 320 322 322 322 323 324 323 321 319
280 280 255 48 43 51 48 338 324 191 329 319 242 220 240 273 269 261 323 349 353 326 160 103 323 298 20 47 34 25 51 56 63 73 82 97 111 117 115 115 119 122 122 122 118 114 111 103 95 85 69 50 32 23 15 6 359 354 349 344 341 338 335 334 331 330 328 327 325 324 324 324 326 327 329 329 328 327 326 326 326 325 325 324 322 321
298 7 39 68 54 40 39 353 312 115 48 332 270 210 219 222 257 277 325 346 309 284 305 90 219 265 317 66 49 37 65 65 61 63 74 94 105 109 109 114 120 121 121 119 115 110 106 96 86 70 50 35 24 19 10 360 353 348 345 341 338 335 333 332 330 329 328 327 326 326 328 330 330 330 331 332 331 329 328 328 326 325 325 324 323 322
261 1 14 38 42 33 30 8 327 83 63 305 253 149 15 275 269 264 264 255 247 278 305 176 176 264 283 115 52 60 86 72 60 58 69 89 101 106 108 115 119 119 120 117 112 106 97 84 67 49 35 26 18 10 358 349 345 342 340 336 334 333 332 330 329 329 328 327 327 328 328 329 329 329 330 331 331 329 328 327 326 325 325 326 325 323
270 18 13 21 27 31 23 308 288 100 322 284 235 195 272 278 272 246 184 222 295 353 295 235 160 251 279 152 36 22 97 88 77 74 73 89 100 105 107 113 117 116 116 112 106 97 83 67 51 38 26 17 6 355 345 340 338 335 334 334 332 331 329 329 328 328 328 327 328 328 329 329 330 331 331 331 329 326 325 325 325 325 324 325 325 324
355 41 32 50 42 16 310 274 248 164 279 287 270 266 270 62 37 69 117 146 48 9 265 271 218 226 271 186 168 159 123 132 108 95 85 94 103 107 108 112 115 114 112 106 97 85 68 52 39 25 10 358 346 340 336 333 332 330 331 331 330 329 328 328 328 328 329 329 329 330 330 330 331 331 330 329 327 326 326 325 325 326 325 325 325 323
336 50 79 58 50 283 287 287 215 173 287 319 3 324 324 33 37 49 74 100 60 315 258 291 297 219 297 215 171 208 177 151 133 123 111 98 103 112 114 113 114 113 108 100 89 72 53 32 14 357 343 336 334 332 328 327 328 328 329 330 330 330 329 328 329 330 331 332 332 331 332 332 332 332 331 330 329 329 328 327 327 327 326 326 325 324
360 42 37 18 19 358 326 328 3 37 336 9 9 344 337 341 14 26 358 46 69 280 263 290 293 181 254 250 237 325 86 118 125 133 126 104 99 113 122 118 113 110 104 93 73 49 25 357 338 329 326 326 325 323 323 325 327 328 329 331 331 330 330 330 331 332 333 334 334 333 334 334 334 334 333 332 331 330 330 329 328 328 326 325 325 324
356 338 319 349 31 26 10 335 352 358 14 15 6 25 16 345 360 355 332 351 202 245 254 342 3 237 223 244 349 343 64 99 114 122 117 102 96 110 126 124 115 106 94 66 37 14 353 334 323 318 318 319 321 324 328 330 331 331 331 331 331 331 331 332 333 334 335 336 336 335 335 336 336 334 333 332 331 331 330 329 328 328 327 326 325 324
342 306 349 28 9 15 29 19 353 332 358 4 5 46 27 360 358 319 304 325 296 275 263 320 357 306 233 46 354 354 65 100 110 105 96 89 88 102 120 122 114 98 54 1 341 333 330 324 316 314 318 324 329 333 335 334 334 333 332 331 333 333 333 334 335 336 337 338 338 337 336 336 335 333 332 332 331 330 329 328 328 327 327 326 326 325
14 321 357 34 334 348 24 55 347 296 347 342 219 100 60 37 5 297 283 304 302 298 288 297 329 270 242 9 348 59 95 99 97 87 79 73 69 78 93 102 101 73 21 350 327 315 316 314 313 318 327 332 335 337 337 336 334 332 332 333 334 335 334 335 336 337 337 337 338 337 335 335 335 333 332 331 330 329 329 328 328 327 327 326 326 325
47 286 293 6 304 345 20 9 294 356 11 313 159 80 24 126 167 255 249 244 284 312 311 301 201 200 171 8 35 103 99 93 87 74 64 52 44 50 55 54 52 355 359 341 319 305 304 307 315 324 330 335 337 337 337 336 334 333 334 335 335 335 335 336 337 337 337 337 337 337 335 335 334 332 330 330 330 329 329 329 328 327 327 326 325 324
36 286 302 360 11 43 35 347 347 29 351 318 45 25 289 187 146 253 295 310 26 346 301 294 175 258 37 110 139 122 106 96 87 69 55 41 32 28 21 8 311 313 331 321 303 294 298 306 317 325 329 335 338 337 337 336 335 336 337 336 336 336 336 336 337 337 337 337 337 337 336 336 334 333 331 330 330 330 329 328 327 327 326 326 325 324
75 288 314 9 355 342 11 22 50 52 47 37 12 305 293 66 96 94 312 339 13 315 286 321 312 284 318 68 153 152 142 123 97 69 55 41 29 15 0 348 319 308 305 294 285 283 295 307 316 324 330 336 338 336 336 337 338 339 338 337 336 336 337 338 337 337 338 338 338 338 337 336 335 334 333 332 331 330 329 329 328 327 326 326 325 324
105 311 300 317 282 314 351 52 49 20 33 66 336 308 5 53 350 13 15 329 331 301 295 312 316 306 36 21 286 214 157 103 84 64 54 39 28 14 352 333 314 304 285 274 278 282 295 309 316 325 330 332 334 334 336 339 340 339 338 337 337 337 338 338 338 339 340 340 339 338 337 336 335 335 334 332 330 330 329 329 328 327 327 326 326 325
90 92 291 287 305 325 8 43 14 342 359 35 21 353 33 128 232 316 330 302 303 297 301 316 336 4 28 350 319 294 57 56 51 44 50 42 26 10 352 329 304 290 271 268 277 285 298 310 317 324 328 330 335 338 339 341 340 340 339 337 337 338 338 339 340 340 341 341 339 338 337 336 335 334 332 331 330 330 330 330 329 329 328 327 327 326
24 90 276 293 322 6 46 28 358 333 352 11 27 19 360 337 258 305 286 132 320 298 306 318 333 33 13 353 20 61 57 54 47 31 33 5 340 341 345 332 297 279 273 272 276 285 299 310 318 326 331 335 339 341 341 340 339 340 339 338 339 339 339 339 340 340 339 338 337 336 335 334 333 332 331 330 330 330 330 331 331 330 329 328 328 327
26 95 235 303 339 24 51 303 262 246 13 41 46 29 348 332 2 327 310 60 49 305 303 310 320 31 339 344 61 88 95 123 122 132 358 340 322 317 331 329 298 279 274 272 276 287 301 314 324 330 334 337 339 339 339 337 337 338 338 338 338 338 338 338 339 339 337 336 336 335 334 333 332 331 330 330 330 330 331 331 331 330 329 328 328 327
80 96 80 299 308 305 287 286 214 211 86 82 69 36 2 23 57 329 308 352 347 319 312 283 270 209 217 218 141 155 178 184 193 204 228 330 331 330 333 325 299 280 272 272 284 297 310 321 327 331 334 336 336 336 336 334 334 335 335 336 335 336 337 338 338 338 336 335 335 334 333 332 331 331 331 331 331 331 332 331 331 330 329 328 328 327
33 72 42 313 301 312 315 306 220 74 59 64 48 25 18 18 182 212 222 331 302 340 349 297 268 238 177 187 194 198 206 212 216 225 253 309 326 338 340 327 301 287 281 281 292 305 317 324 328 331 333 332 332 333 333 332 332 332 333 334 335 335 337 337 337 337 336 335 334 333 332 332 332 332 332 332 332 332 332 331 331 330 329 328 328 327
359 62 44 14 342 344 350 341 332 15 44 57 28 2 357 340 330 228 165 90 193 351 344 313 291 317 212 192 216 219 221 231 234 239 266 298 315 333 339 329 306 293 286 285 295 307 318 324 327 329 329 328 329 331 331 330 330 331 333 335 335 336 337 337 337 336 335 333 332 332 332 332 332 333 332 332 332 332 332 331 330 330 330 329 328 328
32 104 78 80 39 345 329 320 319 333 3 37 17 344 352 355 350 60 117 38 17 336 332 307 271 304 287 207 222 233 230 244 257 260 277 295 310 328 335 326 305 293 286 286 297 308 317 324 327 327 327 327 329 330 329 329 330 331 333 334 336 336 336 336 336 335 335 333 332 332 332 333 333 333 333 332 332 332 331 331 330 330 330 330 329 329
95 53 49 121 137 244 247 261 285 327 347 348 335 337 352 351 346 92 101 65 303 303 302 211 237 294 304 286 235 237 257 273 278 282 290 298 307 323 330 323 303 290 284 286 297 311 321 326 326 324 325 328 329 328 327 327 329 330 332 334 336 336 335 335 335 335 334 333 332 332 333 333 333 333 333 332 331 331 331 331 331 331 331 331 330 329
103 33 3 134 209 238 239 265 287 335 127 190 301 335 343 341 18 71 89 182 219 300 288 265 274 289 299 302 275 251 302 302 296 302 306 305 303 312 323 321 304 290 286 290 301 315 323 324 322 322 325 327 327 325 324 326 328 330 331 333 335 335 334 334 334 334 333 332 332 332 333 332 332 332 332 331 330 330 330 331 331 331 331 331 330 328
113 56 332 208 283 275 269 278 277 189 152 168 230 309 339 349 49 85 155 195 168 204 269 284 292 285 289 301 320 285 294 293 299 306 310 308 303 306 315 316 303 290 287 293 304 317 321 320 320 322 325 326 325 324 324 325 327 330 331 333 334 335 334 334 333 333 332 332 332 332 332 331 331 331 330 329 329 330 330 331 331 331 331 330 329 328
94 269 224 197 305 295 287 289 248 197 175 151 277 270 249 247 204 179 222 219 196 230 256 274 286 284 283 282 261 294 294 293 301 308 310 309 307 306 310 311 302 290 288 295 308 317 319 319 320 322 325 326 324 323 324 325 328 330 331 332 333 334 334 333 332 331 331 331 331 331 330 330 329 330 329 329 329 330 330 331 331 331 331 330 328 327
31 346 240 123 341 298 286 311 303 198 171 167 242 249 210 248 259 235 247 258 253 264 271 282 291 287 263 202 278 300 302 305 311 313 311 310 308 306 308 309 301 290 290 300 312 318 318 318 320 323 325 325 323 323 324 325 327 330 330 331 332 333 333 332 331 330 330 330 330 331 330 329 329 329 329 329 329 329 330 330 331 331 330 329 328 327
36 10 2 63 14 285 276 330 334 52 126 215 266 270 309 322 271 258 263 269 272 287 296 303 300 292 248 273 299 300 305 309 310 311 312 310 309 307 307 306 300 292 298 310 317 318 317 317 320 324 325 324 322 322 323 325 327 328 329 330 331 332 332 331 330 329 330 330 331 331 330 329 328 328 328 328 329 330 330 331 331 331 330 329 328 327
83 70 23 49 358 280 292 323 327 46 54 304 266 224 220 258 275 272 268 257 244 248 281 291 290 295 308 312 307 301 307 309 307 309 312 310 306 304 303 301 296 296 308 316 317 316 315 317 320 323 324 323 322 322 323 325 326 326 328 329 330 331 330 329 329 329 329 330 331 330 329 328 327 327 328 329 329 330 331 331 331 331 330 328 328 327
97 89 87 73 350 282 302 321 351 50 25 284 224 160 176 265 287 270 268 272 261 232 232 264 280 298 307 306 304 302 304 306 306 308 309 305 300 297 297 294 292 302 313 315 314 313 314 317 320 321 322 321 320 320 322 323 323 324 326 327 328 329 328 327 328 328 328 330 330 330 329 327 327 328 328 329 330 330 331 331 331 331 330 328 328 328
53 67 102 102 151 264 310 357 19 12 256 241 196 168 214 263 259 254 260 258 253 250 251 262 280 291 293 296 299 299 301 305 306 306 306 302 295 290 289 289 296 308 313 313 312 314 315 317 319 320 320 319 319 319 320 320 321 322 324 326 326 327 327 326 327 328 328 330 331 331 330 329 328 329 329 329 330 330 331 331 331 332 330 328 329 329
90 100 126 107 164 299 1 37 6 280 259 235 284 274 290 301 291 294 290 256 223 230 240 251 276 282 288 296 297 296 301 306 306 305 304 298 288 285 288 296 306 310 311 312 312 314 315 317 318 318 318 317 318 319 318 319 321 322 324 326 326 326 326 326 328 329 329 331 332 333 332 331 329 330 330 330 329 330 331 332 332 332 330 328 329 329
121 117 65 5 42 8 326 259 257 307 321 325 285 233 209 279 275 300 307 284 189 172 203 254 283 288 292 297 297 300 308 308 304 305 305 293 289 298 302 306 310 311 310 311 312 312 315 316 316 316 316 316 317 318 317 319 321 322 323 325 325 325 326 327 328 329 330 332 334 334 333 332 330 331 331 330 330 331 331 332 332 332 331 329 329 330
79 86 138 40 19 81 359 296 322 341 314 263 240 200 182 260 266 217 257 285 172 149 215 269 282 294 299 298 301 311 316 311 298 307 316 308 310 313 311 310 312 311 310 311 311 312 314 314 314 314 314 314 316 317 317 318 320 321 322 323 324 324 326 327 328 330 331 334 335 334 333 333 332 332 331 330 330 330 331 332 332 331 331 331 330 330
46 41 97 88 4 62 100 275 267 259 261 243 217 209 239 280 265 194 280 290 187 170 271 284 287 300 304 300 306 317 321 307 294 312 321 317 315 314 312 312 312 310 310 310 310 312 313 313 313 313 313 315 316 316 317 318 319 320 321 322 323 324 325 328 330 331 333 334 335 333 333 333 333 333 332 331 331 331 331 332 332 331 332 332 331 330
28 12 41 53 303 200 152 211 230 236 257 226 199 236 299 263 164 95 323 285 197 219 293 301 300 304 306 305 309 312 296 274 289 303 308 307 305 307 308 309 308 307 307 309 309 311 312 312 312 313 314 317 317 317 318 317 318 320 320 321 323 324 326 329 330 331 333 333 333 333 333 334 334 333 333 332 331 332 333 333 332 332 332 332 332 330
15 353 17 141 229 193 179 234 269 263 252 209 201 291 324 123 132 66 294 290 298 302 306 309 305 304 305 303 300 289 277 282 289 295 301 301 300 303 305 305 305 305 306 308 309 311 311 311 312 314 316 319 319 318 318 316 317 319 319 320 322 323 326 328 329 330 332 332 332 332 333 334 334 334 334 334 333 333 334 334 334 332 332 333 333 331
24 343 339 197 201 192 177 206 284 286 242 189 223 298 322 126 290 286 291 308 312 307 307 308 302 301 302 297 291 284 287 292 293 295 300 301 300 302 304 304 304 305 305 307 309 311 310 310 311 314 317 318 318 317 316 315 315 317 318 319 321 322 325 327 328 329 330 330 331 332 332 333 335 335 335 335 334 334 334 335 335 333 333 335 334 333
176 198 293 258 200 279 5 351 307 293 227 180 214 287 155 188 289 299 303 308 307 304 304 302 297 299 300 296 293 292 293 295 295 296 300 300 298 300 302 303 304 305 306 308 309 310 310 309 311 314 316 318 318 316 315 313 313 315 316 318 319 321 323 325 327 328 329 329 330 330 331 333 335 336 336 336 335 335 336 337 337 335 335 337 336 334
194 177 244 252 204 115 24 213 213 218 198 192 248 263 245 267 291 301 304 304 304 303 300 295 295 299 299 296 295 295 294 294 295 297 300 300 298 299 301 303 304 305 306 307 308 309 309 309 310 313 315 317 317 315 314 312 312 314 316 317 318 320 322 324 326 326 327 328 329 329 330 332 335 337 337 337 337 336 337 339 339 337 337 339 338 336
209 189 192 233 216 204 231 243 251 269 281 283 281 280 285 291 298 302 299 296 297 296 294 294 298 301 301 298 295 292 292 294 296 298 300 301 300 300 301 302 304 305 305 307 307 308 308 308 310 313 314 316 316 314 312 311 311 313 315 316 317 318 320 322 324 325 327 328 328 329 329 331 334 336 338 338 337 337 338 339 340 339 339 340 340 339
215 189 160 158 243 268 269 261 262 271 276 278 283 291 297 298 299 298 295 290 289 291 294 298 301 302 302 299 292 289 291 295 297 299 300 300 300 301 302 303 304 304 305 306 307 308 308 308 310 312 313 315 315 313 311 310 311 312 314 315 316 317 319 321 322 324 326 327 327 328 329 329 332 335 337 339 338 337 338 339 340 340 340 341 342 342
223 185 186 218 267 303 282 257 252 258 264 276 290 294 295 296 296 293 290 288 289 294 299 303 304 303 300 295 290 290 292 296 299 300 300 300 300 301 303 303 304 305 305 305 307 308 308 308 310 312 312 314 315 313 310 310 311 313 313 314 315 316 317 319 321 323 325 327 327 327 328 329 331 333 335 338 338 337 337 338 340 341 341 343 345 344
175 173 210 235 211 230 262 269 274 275 274 279 285 286 288 294 295 291 291 293 296 300 304 305 305 301 296 293 292 292 294 297 299 299 299 299 300 302 303 303 304 304 304 305 307 308 306 307 310 311 312 314 315 314 311 311 313 314 314 314 314 314 315 318 320 322 324 325 325 325 326 328 330 331 333 335 337 337 337 337 339 341 342 345 346 345
156 170 208 223 238 254 267 276 283 286 284 277 271 276 288 297 298 297 299 300 301 304 306 306 304 299 295 294 295 294 294 297 298 298 297 298 300 301 303 304 304 303 304 306 307 306 306 308 310 311 312 314 315 313 312 313 315 316 316 314 313 313 314 317 319 320 322 323 323 323 325 326 328 330 331 333 334 335 336 337 338 339 342 345 345 344
163 201 201 186 290 275 270 278 284 288 286 280 278 285 294 300 302 302 303 305 306 308 309 308 305 301 296 295 297 296 295 297 299 299 296 297 299 302 303 304 303 303 305 307 307 307 307 308 309 310 312 314 314 313 312 313 315 317 317 314 312 312 314 316 317 319 321 322 322 322 323 325 327 328 329 331 332 332 334 336 338 339 341 341 341 343
205 224 211 202 246 261 273 283 283 272 273 283 289 293 297 301 304 304 305 308 308 309 310 307 303 299 296 296 298 298 297 300 302 299 296 297 299 301 303 303 302 303 305 308 308 308 308 308 309 310 312 313 314 312 312 313 316 318 317 313 311 311 312 314 316 317 319 321 321 322 323 324 325 327 328 329 330 330 331 333 335 337 339 339 339 340